Nome, AK

3:17 AM AKST on February 11, 2016 (GMT -0900)
Nome

Weather History for PAOM - February, 2013

Change the Weather History Date:

Wednesday, February 13, 2013

  Actual Average Record
Temperature  
Mean Temperature 6 °F -  
Max Temperature 17 °F 15 °F 48 °F (1986)
Min Temperature -5 °F -1 °F -37 °F (1964)
Degree Days  
Heating Degree Days 59 58  
Month to date heating degree days 748 762  
Since 1 July heating degree days 8465 8433  
Cooling Degree Days 0    
Month to date cooling degree days 0  
Year to date cooling degree days 0  
Moisture  
Dew Point 0 °F    
Average Humidity 0    
Maximum Humidity 0    
Minimum Humidity 0    
Precipitation  
Precipitation 0.06 in 0.04 in 0.38 in (1996)
Month to date precipitation 0.34 0.43  
Year to date precipitation 1.50 1.37  
Snow  
Snow 1.20 in 0.40 in 6.70 in (1996)
Month to date snowfall 7.0 5.4  
Since 1 July snowfall 40.8 49.9  
Snow Depth 30.00 in    
Sea Level Pressure  
Sea Level Pressure 29.61 in    
Wind  
Wind Speed 13 mph (East)    
Max Wind Speed 22 mph    
Max Gust Speed 26 mph    
Visibility 4 miles    
Events Snow    
T = Trace of Precipitation, MM = Missing Value Source: NWS Daily Summary

Daily Weather History Graph

Daily Weather History Graph

Search for Another Location

Airport or City:

Trip Planner

Search our weather history database for the weather conditions in past years. The results will help you decide how hot, cold, wet, or windy it might be!

Date:

Astronomy

Feb. 13, 2013 Rise Set
Actual Time 10:03 AM AKST 6:29 PM AKST
Civil Twilight 9:11 AM AKST 7:21 PM AKST
Nautical Twilight 8:14 AM AKST 8:18 PM AKST
Astronomical Twilight 7:18 AM AKST 9:14 PM AKST
Moon 9:57 AM AKST (2/13) No Moon Set
Length of Visible Light 10h 10m
Length of Day
8h 25m
Waxing Crescent, 15% of the Moon is Illuminated
Feb 13
Waxing Crescent
Feb 17
First Quarter
Feb 25
Full
Mar 4
Last Quarter
Mar 11
New

Hourly Weather History & Observations

Time (AKST) Temp. Windchill Dew Point Humidity Pressure Visibility Wind Dir Wind Speed Gust Speed Precip Events Conditions
12:35 AM 10.4 °F -3.3 °F 8.6 °F 92% 29.57 in 4.0 mi East 10.4 mph - 0.00 in Snow Light Snow
12:53 AM 10.9 °F -2.6 °F 9.0 °F 92% 29.60 in 8.0 mi East 10.4 mph - 0.00 in Snow Light Snow
1:28 AM 12.2 °F 0.7 °F 10.4 °F 92% 29.57 in 10.0 mi East 8.1 mph - N/A   Overcast
1:53 AM 12.9 °F 0.7 °F 10.0 °F 88% 29.58 in 10.0 mi East 9.2 mph - N/A   Overcast
3:53 AM 16.0 °F 5.3 °F 12.9 °F 88% 29.57 in 3.0 mi ENE 8.1 mph - 0.01 in Snow Light Snow
4:40 AM 17.6 °F 7.3 °F 14.0 °F 86% 29.55 in 2.0 mi ENE 8.1 mph - 0.01 in Snow Light Snow
4:53 AM 17.1 °F 8.7 °F 14.0 °F 88% 29.56 in 2.0 mi ENE 5.8 mph - 0.01 in Snow Light Snow
5:18 AM 17.6 °F 7.3 °F 15.8 °F 93% 29.53 in 2.0 mi South 8.1 mph - 0.01 in Snow Light Snow
5:29 AM 17.6 °F 6.4 °F 14.0 °F 86% 29.52 in 1.0 mi SE 9.2 mph 20.7 mph 0.02 in Snow Light Snow
5:51 AM 17.6 °F 6.4 °F 14.0 °F 86% 29.53 in 2.0 mi East 9.2 mph - 0.03 in Snow Light Snow
5:53 AM 17.1 °F 5.8 °F 14.0 °F 88% 29.53 in 2.0 mi East 9.2 mph - 0.03 in Snow Light Snow
6:37 AM 12.2 °F -5.8 °F 10.4 °F 92% 29.54 in 0.8 mi SSE 19.6 mph 25.3 mph 0.01 in Snow Light Snow
6:41 AM 10.4 °F -6.6 °F 8.6 °F 92% 29.54 in 0.8 mi SSE 16.1 mph 25.3 mph 0.01 in Snow Light Snow
6:53 AM 9.0 °F -8.5 °F 5.0 °F 84% 29.54 in 2.0 mi SE 16.1 mph - 0.01 in Snow Light Snow
7:07 AM 8.6 °F -8.9 °F 1.4 °F 73% 29.57 in 6.0 mi SE 16.1 mph 21.9 mph 0.00 in Snow Light Snow
7:29 AM 6.8 °F -11.3 °F -0.4 °F 72% 29.57 in 7.0 mi ESE 16.1 mph - 0.00 in   Overcast
7:53 AM 1.9 °F -16.9 °F -4.0 °F 76% 29.58 in 10.0 mi ESE 15.0 mph - 0.00 in   Mostly Cloudy
8:53 AM -4.0 °F -23.0 °F -9.0 °F 79% 29.57 in 10.0 mi ENE 12.7 mph - N/A   Partly Cloudy
9:27 AM -0.4 °F -21.2 °F -5.8 °F 78% 29.58 in 7.0 mi ENE 17.3 mph - 0.00 in   Mostly Cloudy
9:53 AM -0.0 °F -20.7 °F -5.1 °F 79% 29.58 in 7.0 mi East 17.3 mph - 0.00 in   Overcast
10:53 AM -0.9 °F -21.9 °F -5.1 °F 83% 29.60 in 7.0 mi East 17.3 mph - N/A   Mostly Cloudy
11:19 AM -0.4 °F -21.7 °F -5.8 °F 78% 29.59 in 7.0 mi East 18.4 mph 26.5 mph N/A   Mostly Cloudy
11:53 AM -0.9 °F -21.2 °F -5.1 °F 83% 29.61 in 5.0 mi East 16.1 mph - N/A   Overcast
12:53 PM -0.0 °F -19.4 °F -4.0 °F 83% 29.61 in 3.0 mi East 15.0 mph - 0.00 in Snow Light Snow
1:13 PM -0.4 °F -19.2 °F -4.0 °F 85% 29.61 in 1.8 mi East 13.8 mph - 0.00 in Snow Light Snow
1:39 PM -0.4 °F -21.7 °F -4.0 °F 85% 29.61 in 2.0 mi East 18.4 mph - 0.00 in Snow Light Snow
1:53 PM -0.0 °F -20.1 °F -4.0 °F 83% 29.62 in 3.0 mi East 16.1 mph - 0.00 in   Overcast
2:24 PM -0.4 °F -22.3 °F -5.8 °F 78% 29.64 in 3.0 mi East 19.6 mph - 0.00 in Snow Light Snow
2:45 PM -0.4 °F -21.7 °F -4.0 °F 85% 29.63 in 1.2 mi East 18.4 mph - 0.00 in Snow Light Snow
2:53 PM -0.0 °F -20.7 °F -4.0 °F 83% 29.62 in 1.0 mi East 17.3 mph - 0.00 in Snow Light Snow
3:24 PM -0.4 °F -20.5 °F -4.0 °F 85% 29.62 in 1.0 mi East 16.1 mph - 0.00 in Snow Light Snow
3:53 PM -0.0 °F -21.8 °F -4.0 °F 83% 29.63 in 1.0 mi East 19.6 mph - 0.00 in Snow Light Snow
4:09 PM -0.4 °F -21.2 °F -4.0 °F 85% 29.62 in 0.8 mi East 17.3 mph - 0.00 in Snow Light Snow
4:25 PM -0.4 °F -21.2 °F -4.0 °F 85% 29.63 in 2.0 mi East 17.3 mph - 0.00 in Snow Light Snow
4:35 PM -0.4 °F -19.2 °F -4.0 °F 85% 29.64 in 3.0 mi East 13.8 mph - 0.00 in Snow Light Snow
4:53 PM -0.0 °F -20.1 °F -4.0 °F 83% 29.64 in 3.0 mi East 16.1 mph - 0.00 in Snow Light Snow
5:00 PM -0.4 °F -21.2 °F -4.0 °F 85% 29.63 in 1.5 mi East 17.3 mph - 0.00 in Snow Light Snow
5:07 PM -0.4 °F -22.3 °F -4.0 °F 85% 29.64 in 4.0 mi East 19.6 mph - 0.00 in   Overcast
5:24 PM -0.4 °F -21.2 °F -4.0 °F 85% 29.65 in 2.0 mi East 17.3 mph - 0.00 in Snow Light Snow
5:53 PM -0.0 °F -20.7 °F -4.0 °F 83% 29.64 in 2.0 mi East 17.3 mph - 0.00 in Snow Light Snow
6:00 PM -0.4 °F -20.5 °F -4.0 °F 85% 29.65 in 0.8 mi East 16.1 mph - 0.00 in Snow Light Snow
6:53 PM -0.0 °F -19.4 °F -2.9 °F 88% 29.65 in 0.8 mi East 15.0 mph - 0.00 in Snow Light Snow
7:01 PM -0.4 °F -19.2 °F -2.2 °F 92% 29.66 in 1.2 mi East 13.8 mph - 0.00 in Snow Light Snow
7:36 PM 1.4 °F -15.3 °F -2.2 °F 85% 29.66 in 3.0 mi East 11.5 mph - 0.00 in Snow Light Snow
7:53 PM 1.0 °F -15.8 °F -2.9 °F 83% 29.66 in 3.0 mi East 11.5 mph - 0.00 in Snow Light Snow
8:53 PM -0.0 °F -17.1 °F -4.0 °F 83% 29.68 in 9.0 mi East 11.5 mph - 0.00 in   Overcast
9:53 PM -0.9 °F -15.3 °F -6.0 °F 79% 29.69 in 9.0 mi East 8.1 mph - N/A   Overcast
10:53 PM -2.9 °F -18.8 °F -7.1 °F 82% 29.69 in 10.0 mi East 9.2 mph - N/A   Overcast
11:53 PM -2.9 °F -17.7 °F -6.0 °F 87% 29.69 in 9.0 mi ENE 8.1 mph - N/A   Overcast